DO1TOB-60 Weather Reports


Display with metric or nautical units.
time (UTC)temp
F
wind
direction
speed
MPH
gust
MPH
rain 1hr
in
rain 24hr
in
rain mn
in
humidity
%
barometer
mb
20260506123707 46 321 4.0 4.0 0.00 0.42 0.60 97 1007.1
20260506123607 46 315 4.0 4.0 0.00 0.42 0.60 97 1007.1
20260506123507 46 307 5.0 5.0 0.00 0.42 0.60 97 1007.1
20260506123407 46 0.0 2.0 0.00 0.42 0.60 97 1007.1
20260506123307 46 311 1.0 1.0 0.00 0.42 0.60 97 1007.1
20260506123206 46 320 1.0 1.0 0.00 0.42 0.60 97 1007.0
20260506123107 46 0.0 2.0 0.00 0.42 0.60 97 1007.1
20260506123007 46 319 3.0 3.0 0.00 0.42 0.60 97 1007.0
20260506122906 46 313 4.0 4.0 0.00 0.42 0.60 97 1007.0
20260506122806 46 298 4.0 7.0 0.00 0.42 0.60 97 1007.0
20260506122708 46 322 4.0 4.0 0.00 0.42 0.60 97 1007.0
20260506122607 46 309 3.0 3.0 0.00 0.42 0.60 97 1007.1
20260506122507 46 306 3.0 3.0 0.00 0.42 0.60 97 1007.0
20260506122406 46 308 5.0 5.0 0.00 0.42 0.60 97 1007.1
20260506122307 46 315 3.0 4.0 0.00 0.42 0.60 97 1007.0
20260506122207 46 0.0 0.0 0.00 0.42 0.60 97 1007.0
20260506122107 46 313 1.0 2.0 0.00 0.42 0.60 97 1007.1
20260506122007 46 0.0 1.0 0.00 0.42 0.60 97 1007.1
20260506121907 46 319 2.0 3.0 0.00 0.42 0.60 97 1007.0
20260506121806 46 315 4.0 4.0 0.00 0.42 0.60 97 1007.0
20260506121707 46 309 2.0 2.0 0.00 0.42 0.60 97 1007.0
20260506121607 46 311 3.0 3.0 0.00 0.42 0.60 97 1007.0
20260506121507 46 315 1.0 2.0 0.00 0.42 0.60 97 1007.0
20260506121407 46 0.0 0.0 0.00 0.42 0.60 97 1007.0
20260506121307 46 0.0 0.0 0.00 0.42 0.60 97 1007.0
20260506121207 46 0.0 0.0 0.00 0.42 0.60 97 1007.0
20260506121107 46 0.0 1.0 0.00 0.42 0.60 97 1007.0
20260506121007 46 319 1.0 2.0 0.00 0.42 0.60 97 1007.0
20260506120906 46 325 2.0 2.0 0.00 0.42 0.60 97 1007.0
20260506120807 47 0.0 0.0 0.00 0.42 0.60 97 1007.0
20260506120707 47 0.0 0.0 0.00 0.42 0.60 97 1007.0
20260506120607 47 0.0 0.0 0.00 0.42 0.60 97 1007.0
20260506120508 47 0.0 0.0 0.00 0.42 0.60 97 1007.0
20260506120407 47 307 2.0 2.0 0.00 0.42 0.60 97 1007.0
20260506120306 47 0.0 1.0 0.00 0.42 0.60 97 1006.9
20260506120207 47 313 1.0 1.0 0.00 0.42 0.60 97 1006.9
20260506120107 47 0.0 0.0 0.00 0.42 0.60 97 1006.9
20260506120007 47 0.0 0.0 0.00 0.42 0.60 97 1006.9
20260506115907 47 317 2.0 3.0 0.00 0.42 0.60 97 1006.9
20260506115807 47 321 5.0 5.0 0.00 0.42 0.60 97 1006.9
20260506115707 47 334 1.0 2.0 0.00 0.42 0.60 97 1006.9
20260506115607 47 0.0 1.0 0.00 0.42 0.60 97 1006.8
20260506115507 47 301 3.0 3.0 0.00 0.42 0.60 97 1006.8
20260506115407 47 322 2.0 2.0 0.00 0.42 0.60 97 1006.8
20260506115307 47 316 2.0 6.0 0.00 0.42 0.60 97 1006.8
20260506115206 47 338 5.0 5.0 0.00 0.42 0.60 97 1006.8
20260506115106 47 315 2.0 2.0 0.00 0.42 0.60 97 1006.8
20260506115007 47 0.0 0.0 0.00 0.42 0.60 97 1006.7
20260506114906 47 0.0 0.0 0.00 0.42 0.60 97 1006.8
20260506114807 47 315 2.0 3.0 0.00 0.42 0.60 97 1006.8
20260506114707 47 299 5.0 6.0 0.00 0.42 0.60 97 1006.8
20260506114607 47 317 4.0 4.0 0.00 0.42 0.60 97 1006.7
20260506114507 47 0.0 1.0 0.00 0.42 0.60 97 1006.7
20260506114407 47 306 3.0 5.0 0.00 0.42 0.60 97 1006.7
20260506114308 47 325 3.0 3.0 0.00 0.42 0.60 97 1006.7
20260506114207 47 324 5.0 5.0 0.00 0.42 0.60 97 1006.7
20260506114107 47 308 3.0 3.0 0.00 0.42 0.60 97 1006.6
20260506114006 47 321 3.0 4.0 0.00 0.42 0.60 97 1006.6
20260506113908 47 307 6.0 6.0 0.00 0.42 0.60 97 1006.6
20260506113807 47 324 1.0 2.0 0.00 0.42 0.60 97 1006.6
20260506113706 47 332 4.0 4.0 0.00 0.42 0.60 97 1006.6
20260506113607 47 0.0 0.0 0.00 0.42 0.60 97 1006.6
20260506113506 47 312 1.0 1.0 0.00 0.42 0.60 97 1006.7
20260506113406 47 304 3.0 5.0 0.00 0.42 0.60 97 1006.7
20260506113306 47 0.0 0.0 0.00 0.42 0.60 97 1006.7
20260506113207 47 0.0 1.0 0.00 0.42 0.60 97 1006.7
20260506113106 47 297 4.0 4.0 0.00 0.42 0.60 97 1006.7
20260506113007 47 305 2.0 2.0 0.00 0.42 0.60 97 1006.7
20260506112907 47 0.0 1.0 0.00 0.42 0.60 97 1006.7
20260506112807 47 321 3.0 3.0 0.00 0.42 0.60 97 1006.7
20260506112707 47 296 3.0 4.0 0.00 0.42 0.60 97 1006.7
20260506112606 47 316 3.0 4.0 0.00 0.42 0.60 97 1006.7
20260506112507 47 315 3.0 4.0 0.00 0.42 0.60 97 1006.7
20260506112406 47 306 1.0 3.0 0.00 0.42 0.60 97 1006.7
20260506112307 47 0.0 0.0 0.00 0.42 0.60 97 1006.7
20260506112206 47 315 1.0 1.0 0.00 0.42 0.60 97 1006.7
20260506112108 47 0.0 0.0 0.00 0.42 0.60 97 1006.7
20260506112007 47 0.0 0.0 0.00 0.42 0.60 97 1006.7
20260506111907 47 318 3.0 3.0 0.00 0.42 0.60 97 1006.8
20260506111807 47 315 3.0 3.0 0.00 0.42 0.60 97 1006.7
20260506111707 47 336 1.0 1.0 0.00 0.42 0.60 97 1006.7
20260506111606 47 336 2.0 2.0 0.00 0.42 0.60 97 1006.8
20260506111506 47 0.0 0.0 0.00 0.42 0.60 97 1006.7
20260506111406 47 0.0 0.0 0.00 0.42 0.60 97 1006.7
20260506111307 47 320 1.0 3.0 0.00 0.42 0.60 97 1006.7
20260506111206 47 0.0 0.0 0.00 0.42 0.60 97 1006.8
20260506111106 47 0.0 0.0 0.00 0.42 0.60 97 1006.7
20260506111007 47 319 2.0 3.0 0.00 0.42 0.60 97 1006.7
20260506110906 47 322 1.0 2.0 0.00 0.42 0.60 97 1006.8
20260506110807 47 0.0 0.0 0.00 0.42 0.60 97 1006.7
20260506110706 47 304 1.0 1.0 0.00 0.42 0.60 97 1006.7
20260506110607 47 321 4.0 4.0 0.00 0.42 0.60 97 1006.7
20260506110506 47 333 1.0 2.0 0.00 0.42 0.60 97 1006.7
20260506110407 47 332 4.0 4.0 0.00 0.42 0.60 97 1006.7
20260506110307 47 329 4.0 5.0 0.00 0.42 0.60 98 1006.7
20260506110206 47 325 4.0 4.0 0.00 0.42 0.60 98 1006.7
20260506110106 47 333 4.0 4.0 0.00 0.42 0.60 98 1006.6
20260506110006 47 319 6.0 6.0 0.00 0.42 0.60 98 1006.6
20260506105907 47 327 5.0 5.0 0.00 0.42 0.60 98 1006.6
20260506105806 47 319 3.0 3.0 0.00 0.42 0.60 98 1006.6
20260506105707 47 304 1.0 2.0 0.00 0.42 0.60 98 1006.6
20260506105606 47 312 4.0 4.0 0.00 0.42 0.60 98 1006.7
20260506105507 47 303 3.0 3.0 0.00 0.42 0.60 98 1006.6
20260506105406 47 317 3.0 3.0 0.00 0.42 0.60 98 1006.7
20260506105306 48 319 6.0 7.0 0.00 0.42 0.60 98 1006.6
20260506105207 48 323 4.0 4.0 0.00 0.42 0.60 98 1006.7
20260506105107 48 314 4.0 4.0 0.00 0.42 0.60 98 1006.6
20260506105007 48 304 6.0 6.0 0.00 0.42 0.60 98 1006.6
20260506104907 48 328 4.0 4.0 0.00 0.42 0.60 98 1006.6
20260506104808 48 313 5.0 5.0 0.00 0.42 0.60 98 1006.6
20260506104706 48 308 1.0 1.0 0.00 0.42 0.60 98 1006.7
20260506104606 48 306 3.0 3.0 0.00 0.42 0.60 98 1006.6
20260506104506 48 340 5.0 5.0 0.00 0.42 0.60 98 1006.6
20260506104407 48 313 2.0 3.0 0.00 0.42 0.60 98 1006.6
20260506104307 48 0.0 0.0 0.00 0.42 0.60 98 1006.6
20260506104206 48 0.0 0.0 0.00 0.42 0.60 98 1006.6
20260506104106 48 313 5.0 5.0 0.00 0.42 0.60 98 1006.6
20260506104007 48 314 4.0 4.0 0.00 0.42 0.60 98 1006.6
20260506103907 48 310 5.0 5.0 0.00 0.42 0.60 98 1006.6
20260506103807 48 329 3.0 3.0 0.00 0.42 0.60 98 1006.6
20260506103707 48 313 4.0 5.0 0.00 0.42 0.60 98 1006.5
20260506103607 48 332 4.0 4.0 0.00 0.42 0.60 98 1006.5
20260506103507 48 331 5.0 5.0 0.00 0.42 0.60 98 1006.5
20260506103407 48 331 3.0 3.0 0.00 0.42 0.60 98 1006.5
20260506103307 48 321 4.0 5.0 0.00 0.42 0.60 98 1006.5
20260506103207 48 333 5.0 5.0 0.00 0.42 0.60 98 1006.5
20260506103107 48 328 5.0 5.0 0.00 0.42 0.60 98 1006.4
20260506103007 48 315 8.0 10.0 0.00 0.42 0.60 98 1006.5
20260506102907 48 299 3.0 4.0 0.00 0.42 0.60 98 1006.4
20260506102806 48 306 1.0 1.0 0.00 0.42 0.60 98 1006.5
20260506102706 48 317 2.0 3.0 0.00 0.42 0.60 98 1006.4
20260506102608 48 309 2.0 2.0 0.00 0.42 0.60 98 1006.5
20260506102506 48 311 2.0 2.0 0.00 0.42 0.60 98 1006.4
20260506102407 48 313 1.0 1.0 0.00 0.42 0.60 98 1006.4
20260506102307 48 315 2.0 3.0 0.00 0.42 0.60 98 1006.4
20260506102207 48 0.0 0.0 0.00 0.42 0.60 98 1006.5
20260506102107 48 317 3.0 3.0 0.00 0.42 0.60 98 1006.4
20260506102007 48 315 3.0 3.0 0.00 0.42 0.60 98 1006.4
20260506101907 48 311 3.0 4.0 0.00 0.42 0.60 98 1006.4
20260506101806 48 312 2.0 4.0 0.00 0.42 0.60 98 1006.5
20260506101707 48 317 5.0 5.0 0.00 0.42 0.60 98 1006.4
20260506101607 48 326 4.0 4.0 0.00 0.42 0.60 98 1006.4
20260506101507 48 0.0 0.0 0.00 0.42 0.60 98 1006.4
20260506101406 48 327 4.0 4.0 0.00 0.42 0.60 98 1006.4
20260506101306 48 321 3.0 3.0 0.00 0.42 0.60 98 1006.4
20260506101206 48 321 3.0 3.0 0.00 0.42 0.60 98 1006.4
20260506101107 48 325 5.0 5.0 0.00 0.42 0.60 98 1006.4
20260506101006 48 332 5.0 5.0 0.00 0.42 0.60 98 1006.3
20260506100907 48 336 4.0 4.0 0.00 0.42 0.60 98 1006.3
20260506100806 48 336 3.0 3.0 0.00 0.42 0.60 98 1006.3
20260506100706 48 324 6.0 6.0 0.00 0.42 0.60 98 1006.4
20260506100607 48 312 6.0 8.0 0.00 0.42 0.60 98 1006.3
20260506100506 48 327 6.0 6.0 0.00 0.42 0.60 98 1006.4
20260506100407 48 315 5.0 5.0 0.00 0.42 0.60 98 1006.4
20260506100306 48 319 6.0 6.0 0.00 0.42 0.60 98 1006.4
20260506100206 48 336 5.0 5.0 0.00 0.42 0.60 98 1006.4
20260506100106 48 318 9.0 9.0 0.00 0.42 0.60 98 1006.4
20260506100007 49 0.0 0.0 0.00 0.42 0.60 98 1006.4
20260506095907 49 325 3.0 3.0 0.00 0.42 0.60 98 1006.4
20260506095807 49 315 3.0 3.0 0.00 0.42 0.60 98 1006.3
20260506095706 49 316 5.0 5.0 0.00 0.42 0.60 98 1006.3
20260506095606 49 283 2.0 3.0 0.00 0.42 0.60 98 1006.3
20260506095507 49 311 2.0 2.0 0.00 0.42 0.60 98 1006.2
20260506095406 49 323 4.0 4.0 0.00 0.42 0.60 98 1006.3
20260506095307 49 335 4.0 4.0 0.00 0.42 0.60 98 1006.2
20260506095206 49 313 5.0 5.0 0.00 0.42 0.60 98 1006.2
20260506095106 49 292 2.0 4.0 0.00 0.42 0.60 98 1006.2
20260506095007 49 315 4.0 4.0 0.00 0.42 0.60 98 1006.2
20260506094907 49 337 6.0 6.0 0.00 0.42 0.60 98 1006.2
20260506094806 49 324 4.0 4.0 0.00 0.42 0.60 98 1006.2
20260506094706 49 319 2.0 3.0 0.00 0.42 0.60 98 1006.2
20260506094606 49 311 3.0 4.0 0.00 0.42 0.60 98 1006.2
20260506094507 49 309 3.0 3.0 0.00 0.42 0.60 98 1006.2
20260506094406 49 316 5.0 6.0 0.00 0.42 0.60 98 1006.1
20260506094307 49 315 3.0 3.0 0.00 0.42 0.60 98 1006.1
20260506094207 49 321 3.0 3.0 0.00 0.42 0.60 98 1006.1
20260506094106 49 333 1.0 3.0 0.00 0.42 0.60 98 1006.1
20260506094006 49 0.0 0.0 0.00 0.42 0.60 98 1006.1
20260506093906 49 0.0 0.0 0.00 0.42 0.60 98 1006.1
20260506093807 49 319 4.0 5.0 0.00 0.42 0.60 98 1006.1
20260506093706 49 330 4.0 4.0 0.00 0.42 0.60 98 1006.1
20260506093607 49 325 6.0 6.0 0.00 0.42 0.60 98 1006.1
20260506093507 49 333 6.0 6.0 0.00 0.42 0.60 98 1006.1
20260506093406 49 319 3.0 3.0 0.00 0.42 0.60 98 1006.1
20260506093306 49 313 3.0 3.0 0.00 0.42 0.60 98 1006.1
20260506093206 49 312 4.0 4.0 0.00 0.42 0.60 98 1006.1
20260506093107 49 314 2.0 3.0 0.00 0.42 0.60 98 1006.1
20260506093006 49 312 4.0 5.0 0.00 0.42 0.60 98 1006.1
20260506092906 49 312 2.0 3.0 0.00 0.42 0.60 98 1006.0
20260506092806 49 311 2.0 3.0 0.00 0.42 0.60 98 1006.0
20260506092707 49 316 5.0 6.0 0.00 0.42 0.60 98 1006.0
20260506092606 49 323 2.0 2.0 0.00 0.42 0.60 98 1006.0
20260506092506 49 311 3.0 3.0 0.00 0.42 0.60 98 1005.9
20260506092407 49 316 3.0 3.0 0.00 0.42 0.60 98 1005.9
20260506092306 49 308 3.0 3.0 0.00 0.42 0.60 98 1005.9
20260506092206 49 304 4.0 5.0 0.00 0.42 0.60 98 1005.9
20260506092106 49 331 5.0 5.0 0.00 0.42 0.60 98 1005.9
20260506092007 49 0.0 0.0 0.00 0.42 0.60 98 1005.9
20260506091906 49 327 2.0 2.0 0.00 0.42 0.60 98 1005.9
20260506091806 49 0.0 0.0 0.00 0.42 0.60 98 1005.9
20260506091706 49 325 1.0 2.0 0.00 0.42 0.60 98 1006.0
20260506091607 49 323 4.0 4.0 0.00 0.42 0.60 98 1005.9
20260506091506 49 319 2.0 4.0 0.00 0.42 0.60 98 1006.0
20260506091407 49 319 3.0 4.0 0.00 0.42 0.60 98 1005.9
20260506091306 49 321 5.0 5.0 0.00 0.42 0.60 98 1005.9
20260506091206 49 331 3.0 3.0 0.00 0.42 0.60 98 1005.9
20260506091106 49 0.0 0.0 0.00 0.42 0.60 98 1005.9
20260506091007 49 327 3.0 4.0 0.00 0.42 0.60 98 1005.9
20260506090907 49 317 2.0 2.0 0.00 0.42 0.60 98 1005.9
20260506090807 49 321 4.0 4.0 0.00 0.42 0.60 98 1005.9
20260506090706 49 330 2.0 2.0 0.00 0.42 0.60 98 1005.9
20260506090606 49 333 2.0 2.0 0.00 0.42 0.60 98 1005.9
20260506090507 49 334 2.0 2.0 0.00 0.42 0.60 98 1005.8
20260506090407 49 333 3.0 3.0 0.00 0.42 0.60 98 1005.9
20260506090307 49 311 2.0 2.0 0.00 0.42 0.60 98 1005.8
20260506090207 49 311 1.0 1.0 0.00 0.42 0.60 98 1005.8
20260506090106 49 310 2.0 2.0 0.00 0.42 0.60 98 1005.8
20260506090006 49 327 1.0 3.0 0.00 0.42 0.60 98 1005.7
20260506085906 49 0.0 0.0 0.00 0.42 0.60 98 1005.7
20260506085807 49 321 3.0 3.0 0.00 0.42 0.60 98 1005.7
20260506085706 49 284 3.0 3.0 0.00 0.42 0.60 98 1005.7
20260506085606 49 297 2.0 2.0 0.00 0.42 0.60 98 1005.7
20260506085506 49 310 4.0 4.0 0.00 0.42 0.60 98 1005.7
20260506085407 49 313 2.0 2.0 0.00 0.42 0.60 98 1005.7
20260506085307 49 0.0 0.0 0.00 0.42 0.60 98 1005.7
20260506085206 49 310 3.0 3.0 0.00 0.42 0.60 98 1005.7
20260506085106 49 328 4.0 4.0 0.00 0.42 0.60 98 1005.7
20260506085006 49 329 2.0 2.0 0.00 0.42 0.60 98 1005.7
20260506084907 49 336 3.0 3.0 0.00 0.42 0.60 98 1005.6
20260506084806 49 334 3.0 3.0 0.00 0.42 0.60 98 1005.6
20260506084707 49 327 2.0 2.0 0.00 0.42 0.60 98 1005.6
20260506084606 49 327 4.0 4.0 0.00 0.42 0.60 98 1005.6
20260506084506 49 319 4.0 4.0 0.00 0.42 0.60 98 1005.6
20260506084406 49 331 2.0 3.0 0.00 0.42 0.60 98 1005.6
20260506084307 49 329 2.0 3.0 0.00 0.42 0.60 98 1005.6
20260506084206 49 306 5.0 5.0 0.00 0.42 0.60 98 1005.6
20260506084106 49 322 4.0 5.0 0.01 0.42 0.60 98 1005.6
20260506084007 49 329 4.0 4.0 0.01 0.42 0.60 98 1005.7
20260506083906 49 326 6.0 6.0 0.01 0.42 0.60 98 1005.6
20260506083806 49 315 1.0 1.0 0.01 0.42 0.60 98 1005.6
20260506083706 49 0.0 0.0 0.01 0.42 0.60 98 1005.6
20260506083607 49 0.0 1.0 0.01 0.42 0.60 98 1005.6
20260506083507 49 316 1.0 1.0 0.01 0.42 0.60 98 1005.6
20260506083406 49 0.0 0.0 0.01 0.42 0.60 98 1005.6
20260506083307 49 0.0 0.0 0.01 0.42 0.60 98 1005.6
20260506083207 49 0.0 0.0 0.01 0.42 0.60 98 1005.6
20260506083106 49 0.0 1.0 0.01 0.42 0.60 98 1005.6
20260506083006 49 308 3.0 3.0 0.01 0.42 0.60 98 1005.5
20260506082906 49 336 2.0 3.0 0.01 0.42 0.60 98 1005.5
20260506082806 49 323 5.0 9.0 0.01 0.42 0.60 98 1005.5
20260506082652 49 319 6.0 7.0 0.01 0.42 0.60 98 1005.6
20260506082552 49 322 4.0 4.0 0.01 0.42 0.60 98 1005.6
20260506082453 49 315 2.0 2.0 0.01 0.42 0.60 98 1005.6
20260506082352 49 313 3.0 3.0 0.01 0.42 0.60 98 1005.6
20260506082242 49 304 2.0 2.0 0.01 0.42 0.59 98 1005.6
20260506082142 49 316 2.0 3.0 0.01 0.42 0.59 98 1005.5
20260506082043 49 296 4.0 5.0 0.01 0.42 0.59 98 1005.5
20260506081932 49 284 2.0 2.0 0.01 0.42 0.59 98 1005.5
20260506081832 49 237 2.0 4.0 0.01 0.42 0.59 98 1005.5
20260506081733 49 309 4.0 4.0 0.01 0.42 0.59 98 1005.5
20260506081633 49 311 3.0 4.0 0.01 0.42 0.59 98 1005.5
20260506081532 49 306 3.0 4.0 0.01 0.42 0.59 98 1005.5
20260506081432 49 0.0 0.0 0.01 0.42 0.59 98 1005.5
20260506081333 49 0.0 0.0 0.01 0.42 0.59 98 1005.5
20260506081232 49 0.0 0.0 0.01 0.42 0.59 98 1005.4
20260506081132 49 0.0 0.0 0.01 0.42 0.59 98 1005.5
20260506081032 49 271 3.0 3.0 0.01 0.42 0.59 98 1005.4
20260506080933 49 0.0 0.0 0.01 0.42 0.59 98 1005.5
20260506080832 49 0.0 0.0 0.01 0.42 0.59 98 1005.5
20260506080732 49 0.0 0.0 0.01 0.42 0.59 98 1005.5
20260506080632 49 0.0 0.0 0.01 0.42 0.59 98 1005.4
20260506080532 49 0.0 0.0 0.01 0.42 0.59 98 1005.4
20260506080432 49 0.0 0.0 0.01 0.42 0.59 98 1005.5
20260506080332 49 312 3.0 4.0 0.01 0.42 0.59 98 1005.4
20260506080233 49 319 2.0 2.0 0.01 0.42 0.59 98 1005.4
20260506080133 49 218 1.0 1.0 0.01 0.42 0.59 98 1005.4
20260506073503 50 310 1.0 1.0 0.02 0.41 0.57 98 1005.2
20260506073402 50 310 1.0 2.0 0.02 0.41 0.57 98 1005.2
20260506073302 50 314 4.0 4.0 0.02 0.41 0.57 98 1005.2
20260506073202 50 325 3.0 3.0 0.02 0.41 0.57 98 1005.2
20260506073102 50 327 2.0 2.0 0.02 0.41 0.57 98 1005.2
20260506073002 50 327 2.0 2.0 0.02 0.41 0.57 98 1005.2
20260506072903 50 321 3.0 3.0 0.02 0.41 0.57 98 1005.2
20260506072803 50 324 3.0 3.0 0.02 0.41 0.57 98 1005.2
20260506072702 50 326 2.0 2.0 0.02 0.41 0.57 98 1005.2
20260506072602 50 326 3.0 3.0 0.02 0.41 0.57 98 1005.2
20260506072503 50 326 2.0 2.0 0.02 0.41 0.57 98 1005.2
20260506072402 50 325 2.0 2.0 0.02 0.41 0.57 98 1005.1
20260506072253 50 325 3.0 3.0 0.02 0.41 0.57 98 1005.1
20260506072152 50 325 1.0 2.0 0.02 0.41 0.57 98 1005.2
20260506072052 50 325 2.0 2.0 0.02 0.41 0.57 98 1005.1
20260506071952 50 326 1.0 1.0 0.02 0.41 0.57 98 1005.2
20260506071852 50 328 2.0 2.0 0.03 0.41 0.57 98 1005.1
20260506071753 50 328 3.0 4.0 0.03 0.41 0.57 98 1005.1
20260506071656 50 324 2.0 2.0 0.03 0.41 0.57 98 1005.2
20260506071542 50 324 1.0 2.0 0.03 0.41 0.57 98 1005.1
20260506071442 50 323 2.0 3.0 0.03 0.41 0.57 98 1005.2
20260506071343 50 336 3.0 3.0 0.03 0.41 0.57 98 1005.1
20260506071242 50 328 2.0 2.0 0.03 0.41 0.57 98 1005.1
20260506071142 50 328 2.0 2.0 0.03 0.41 0.57 98 1005.1
20260506071042 50 329 3.0 3.0 0.03 0.41 0.57 98 1005.1
20260506070932 50 329 3.0 3.0 0.03 0.41 0.57 98 1005.1
20260506070832 50 329 2.0 2.0 0.03 0.41 0.57 98 1005.1
20260506070732 50 329 1.0 1.0 0.03 0.41 0.57 98 1005.1
20260506070633 50 0.0 0.0 0.03 0.41 0.57 98 1005.1
20260506070532 50 331 2.0 2.0 0.03 0.41 0.57 98 1005.1
20260506070432 50 331 1.0 2.0 0.03 0.41 0.57 98 1005.1
20260506070332 50 331 1.0 1.0 0.03 0.41 0.57 98 1005.1
20260506070233 49 331 3.0 3.0 0.03 0.41 0.57 98 1005.1
20260506070132 49 0.0 0.0 0.03 0.41 0.57 98 1005.1
20260506062422 49 0.0 1.0 0.02 0.39 0.54 98 1005.0
20260506062322 49 0.0 0.0 0.02 0.39 0.54 98 1004.9
20260506062223 49 0.0 0.0 0.02 0.39 0.54 98 1004.9
20260506062122 49 0.0 0.0 0.02 0.39 0.54 98 1005.0
20260506062022 49 355 1.0 1.0 0.02 0.39 0.54 98 1005.0
20260506061922 49 355 2.0 2.0 0.01 0.38 0.53 98 1004.9
20260506061823 49 0.0 0.0 0.01 0.38 0.53 98 1005.0
20260506061722 49 0.0 0.0 0.01 0.38 0.53 98 1004.9
20260506061622 49 19 1.0 1.0 0.02 0.38 0.53 98 1004.9
20260506061523 49 0.0 0.0 0.02 0.38 0.53 98 1004.9
20260506061422 49 0.0 0.0 0.02 0.38 0.53 98 1004.9
20260506061322 49 19 1.0 2.0 0.02 0.38 0.52 98 1004.9
20260506061222 49 0.0 0.0 0.02 0.38 0.52 98 1004.9
20260506061123 49 0.0 0.0 0.02 0.38 0.52 98 1004.8
20260506061022 49 0.0 0.0 0.02 0.38 0.52 98 1004.9
20260506060922 49 0.0 0.0 0.02 0.38 0.51 98 1004.8
20260506060822 49 0.0 0.0 0.02 0.38 0.51 98 1004.8
20260506060723 49 0.0 0.0 0.02 0.38 0.51 98 1004.8
20260506060622 49 0.0 0.0 0.02 0.38 0.51 98 1004.8
20260506060522 49 0.0 0.0 0.02 0.38 0.51 98 1004.8
20260506060422 49 0.0 0.0 0.02 0.38 0.51 98 1004.8
20260506060322 49 0.0 0.0 0.02 0.38 0.50 98 1004.9
20260506060222 49 0.0 0.0 0.02 0.38 0.50 98 1004.8
20260506060122 49 22 2.0 2.0 0.02 0.38 0.50 98 1004.8
20260506051322 49 0.0 0.0 0.02 0.36 0.46 98 1004.7
20260506051222 49 0.0 0.0 0.02 0.36 0.46 98 1004.6
20260506051122 49 17 1.0 1.0 0.02 0.36 0.46 98 1004.7
20260506051023 49 0.0 0.0 0.02 0.36 0.46 98 1004.6
20260506050922 49 0.0 0.0 0.02 0.36 0.46 98 1004.7
20260506050823 49 0.0 0.0 0.02 0.36 0.46 98 1004.7
20260506050722 49 0.0 0.0 0.02 0.36 0.46 98 1004.7
20260506050622 49 0.0 0.0 0.02 0.36 0.46 98 1004.7
20260506050523 49 0.0 0.0 0.02 0.36 0.46 98 1004.7
20260506050422 49 0.0 0.0 0.02 0.35 0.45 98 1004.7
20260506050322 49 0.0 0.0 0.02 0.35 0.45 98 1004.7
20260506050222 49 0.0 0.0 0.02 0.35 0.45 98 1004.7
20260506050123 49 0.0 0.0 0.02 0.35 0.45 98 1004.7
20260506045122 49 0.0 0.0 0.02 0.35 0.44 98 1004.7
20260506045022 49 0.0 0.0 0.02 0.35 0.44 98 1004.7
20260506044922 49 0.0 0.0 0.02 0.35 0.43 98 1004.7
20260506044822 49 0.0 0.0 0.02 0.35 0.43 98 1004.7
20260506044722 49 35 1.0 1.0 0.02 0.35 0.43 98 1004.7
20260506044622 49 0.0 0.0 0.02 0.35 0.43 98 1004.7
20260506044522 49 0.0 0.0 0.02 0.35 0.43 98 1004.7
20260506044422 49 0.0 0.0 0.02 0.35 0.43 98 1004.8
20260506044323 49 0.0 0.0 0.02 0.35 0.43 98 1004.8
20260506044222 49 0.0 0.0 0.02 0.35 0.43 98 1004.7
20260506044122 49 0.0 0.0 0.02 0.35 0.43 98 1004.8
20260506044022 49 0.0 0.0 0.02 0.35 0.42 98 1004.8
20260506043923 49 39 1.0 1.0 0.02 0.35 0.42 98 1004.7
20260506043822 49 37 1.0 1.0 0.02 0.35 0.42 98 1004.7
20260506043722 49 0.0 0.0 0.02 0.35 0.42 98 1004.7
20260506043622 49 0.0 0.0 0.02 0.35 0.42 98 1004.7
20260506043522 49 0.0 0.0 0.02 0.35 0.42 98 1004.7
20260506043422 49 0.0 0.0 0.02 0.35 0.42 98 1004.7
20260506043322 49 0.0 0.0 0.03 0.35 0.42 98 1004.8
20260506043223 49 35 1.0 2.0 0.03 0.35 0.42 98 1004.7
20260506043122 49 0.0 0.0 0.03 0.35 0.42 98 1004.7
20260506043022 49 34 1.0 1.0 0.03 0.35 0.42 98 1004.7
20260506042922 49 0.0 0.0 0.02 0.35 0.41 98 1004.7
20260506042822 49 0.0 0.0 0.02 0.35 0.41 98 1004.6
20260506042722 49 0.0 0.0 0.02 0.35 0.41 98 1004.6
20260506042622 49 0.0 0.0 0.02 0.35 0.41 98 1004.6
20260506042522 49 0.0 0.0 0.02 0.35 0.41 98 1004.7
20260506042422 49 0.0 0.0 0.02 0.35 0.41 98 1004.7
20260506042322 49 52 1.0 1.0 0.02 0.35 0.41 98 1004.7
20260506042222 49 0.0 0.0 0.02 0.35 0.41 98 1004.7
20260506042123 49 45 2.0 2.0 0.02 0.35 0.41 98 1004.7
20260506042022 49 0.0 0.0 0.02 0.35 0.41 98 1004.7
20260506041922 49 0.0 0.0 0.02 0.35 0.41 98 1004.7
20260506041822 49 0.0 0.0 0.02 0.35 0.40 98 1004.7
20260506041723 49 42 1.0 1.0 0.02 0.35 0.40 98 1004.7
20260506041622 49 43 2.0 2.0 0.02 0.35 0.40 98 1004.7
20260506041522 49 0.0 0.0 0.02 0.35 0.40 98 1004.7
20260506041422 49 0.0 0.0 0.02 0.35 0.40 98 1004.6
20260506041322 49 0.0 0.0 0.02 0.35 0.40 98 1004.6
20260506041222 49 42 4.0 4.0 0.02 0.35 0.39 98 1004.7
20260506041122 49 338 2.0 3.0 0.02 0.35 0.39 98 1004.6
20260506041023 49 0.0 0.0 0.02 0.35 0.39 98 1004.7
20260506040922 49 0.0 0.0 0.02 0.35 0.39 98 1004.7
20260506040822 49 0.0 1.0 0.02 0.35 0.39 98 1004.7
20260506040722 49 0.0 0.0 0.02 0.34 0.39 98 1004.7
20260506040622 49 0.0 0.0 0.02 0.34 0.39 98 1004.7
20260506040522 49 55 1.0 1.0 0.02 0.34 0.39 98 1004.7
20260506040422 49 20 1.0 1.0 0.02 0.34 0.39 98 1004.7
20260506040322 49 0.0 0.0 0.02 0.34 0.39 98 1004.7
20260506040222 49 0.0 0.0 0.02 0.34 0.39 98 1004.7
20260506040122 49 0.0 0.0 0.02 0.34 0.38 98 1004.7
20260506040022 49 0.0 0.0 0.02 0.34 0.38 98 1004.7
20260506035923 49 0.0 0.0 0.02 0.34 0.38 98 1004.7
20260506035822 49 0.0 0.0 0.02 0.34 0.38 98 1004.8
20260506035722 49 0.0 0.0 0.02 0.34 0.38 98 1004.7
20260506035622 49 0.0 0.0 0.02 0.34 0.38 98 1004.8
20260506035523 49 0.0 1.0 0.02 0.34 0.38 98 1004.7
20260506035422 49 0.0 0.0 0.02 0.34 0.38 98 1004.8
20260506035322 49 0.0 0.0 0.02 0.34 0.38 98 1004.8
20260506035222 49 0.0 0.0 0.02 0.34 0.38 98 1004.8
20260506035122 49 0.0 0.0 0.02 0.34 0.38 98 1004.8
20260506035022 49 11 1.0 1.0 0.02 0.34 0.38 98 1004.8
20260506034922 49 11 1.0 2.0 0.02 0.34 0.38 98 1004.8
20260506034822 49 0.0 0.0 0.02 0.34 0.37 98 1004.7
20260506034722 49 0.0 0.0 0.02 0.34 0.37 98 1004.7
20260506034622 49 0.0 0.0 0.02 0.34 0.37 98 1004.7
20260506034522 49 0.0 0.0 0.02 0.34 0.37 98 1004.7
20260506034423 49 0.0 0.0 0.02 0.34 0.37 98 1004.7
20260506034322 49 0.0 1.0 0.02 0.34 0.37 98 1004.7
20260506034222 49 0.0 0.0 0.02 0.34 0.37 98 1004.7
20260506034122 49 0.0 0.0 0.02 0.34 0.37 98 1004.7
20260506034022 49 0.0 0.0 0.02 0.33 0.36 98 1004.7
20260506033922 49 0.0 0.0 0.02 0.33 0.36 98 1004.7
20260506033822 49 0.0 0.0 0.02 0.33 0.36 98 1004.7
20260506033722 49 0.0 0.0 0.02 0.33 0.36 98 1004.7
20260506033622 49 0.0 0.0 0.02 0.33 0.36 98 1004.7
20260506033522 49 0.0 0.0 0.02 0.33 0.36 98 1004.7
20260506033422 49 0.0 0.0 0.02 0.33 0.36 98 1004.8
20260506033322 49 0.0 0.0 0.01 0.32 0.35 98 1004.9
20260506033222 49 0.0 0.0 0.01 0.32 0.35 98 1004.9
20260506033122 49 0.0 1.0 0.01 0.32 0.35 98 1004.8
20260506033022 49 38 1.0 1.0 0.01 0.32 0.35 98 1004.9
20260506032921 49 0.0 0.0 0.01 0.32 0.35 98 1004.9
20260506032822 49 0.0 0.0 0.01 0.32 0.35 98 1004.9
20260506032722 49 47 2.0 2.0 0.01 0.32 0.35 98 1004.8
20260506032623 49 0.0 0.0 0.01 0.32 0.35 98 1004.8
20260506032522 49 0.0 0.0 0.01 0.32 0.35 98 1004.9
20260506032422 49 0.0 0.0 0.01 0.32 0.35 98 1004.8
20260506032322 49 0.0 1.0 0.01 0.32 0.35 98 1004.8
20260506032222 49 35 1.0 2.0 0.01 0.32 0.34 98 1004.9
20260506032122 49 0.0 0.0 0.01 0.32 0.34 98 1004.8
20260506032022 49 35 3.0 3.0 0.02 0.32 0.34 98 1004.9
20260506031922 49 32 1.0 2.0 0.02 0.32 0.34 98 1004.8
20260506031822 49 0.0 0.0 0.02 0.32 0.33 98 1004.9
20260506031722 49 0.0 0.0 0.02 0.32 0.33 98 1004.9
20260506031622 49 24 1.0 1.0 0.02 0.32 0.33 98 1004.9
20260506031523 49 0.0 0.0 0.02 0.32 0.32 98 1004.9
20260506031422 49 0.0 0.0 0.02 0.32 0.32 98 1004.9
20260506031322 49 0.0 0.0 0.02 0.32 0.32 98 1004.9
20260506031222 49 0.0 0.0 0.02 0.32 0.32 98 1005.0
20260506031122 49 29 3.0 3.0 0.02 0.32 0.31 98 1005.0
20260506031022 49 0.0 0.0 0.02 0.32 0.31 98 1005.0
20260506030922 50 0.0 0.0 0.02 0.32 0.31 98 1005.0
20260506030822 50 0.0 0.0 0.02 0.32 0.31 98 1005.0
20260506030722 50 0.0 0.0 0.02 0.32 0.31 98 1005.1
20260506030622 50 0.0 0.0 0.02 0.32 0.31 98 1005.1
20260506030522 50 0.0 0.0 0.02 0.32 0.31 98 1005.1
20260506030423 50 0.0 0.0 0.02 0.32 0.31 98 1005.1
20260506030321 50 0.0 0.0 0.02 0.32 0.31 98 1005.1
20260506030222 50 0.0 0.0 0.02 0.32 0.31 98 1005.1
20260506030122 50 34 1.0 1.0 0.02 0.32 0.31 98 1005.0
20260506030023 50 0.0 1.0 0.02 0.32 0.31 98 1005.1
20260506025922 50 0.0 0.0 0.02 0.32 0.31 98 1005.1
20260506025822 50 0.0 0.0 0.02 0.32 0.30 98 1005.1
20260506025722 50 0.0 0.0 0.02 0.32 0.30 98 1005.1
20260506025622 50 0.0 0.0 0.02 0.32 0.30 98 1005.1
20260506025522 50 41 1.0 2.0 0.02 0.32 0.30 98 1005.1
20260506025422 50 0.0 0.0 0.02 0.32 0.30 98 1005.1
20260506025323 50 43 1.0 1.0 0.02 0.32 0.30 98 1005.1
20260506025222 50 0.0 0.0 0.02 0.32 0.30 98 1005.2
20260506025122 50 0.0 0.0 0.02 0.32 0.30 98 1005.1
20260506025022 50 0.0 0.0 0.02 0.32 0.30 98 1005.1
20260506024922 50 0.0 0.0 0.02 0.32 0.29 98 1005.1
20260506024822 50 42 2.0 2.0 0.02 0.32 0.29 98 1005.2
20260506024722 50 0.0 0.0 0.02 0.32 0.29 98 1005.1
20260506024622 50 0.0 0.0 0.02 0.32 0.29 98 1005.2
20260506024522 50 0.0 0.0 0.02 0.32 0.29 98 1005.2
20260506024422 50 0.0 0.0 0.02 0.32 0.29 98 1005.2
20260506024322 50 36 1.0 1.0 0.02 0.32 0.29 98 1005.3
20260506024223 50 0.0 0.0 0.02 0.32 0.29 98 1005.3
20260506024122 50 0.0 0.0 0.02 0.32 0.29 98 1005.2
20260506024022 50 0.0 0.0 0.01 0.31 0.28 98 1005.3
20260506023922 50 36 1.0 1.0 0.01 0.31 0.28 98 1005.3
20260506023822 50 0.0 0.0 0.01 0.31 0.28 98 1005.3
20260506023722 50 0.0 0.0 0.01 0.31 0.28 98 1005.3
20260506023622 50 0.0 0.0 0.01 0.31 0.28 98 1005.3
20260506023522 50 0.0 0.0 0.01 0.31 0.28 98 1005.3
20260506023422 50 0.0 0.0 0.01 0.31 0.28 98 1005.4
20260506023322 50 0.0 0.0 0.01 0.31 0.28 98 1005.4
20260506023222 50 0.0 0.0 0.01 0.31 0.28 98 1005.3
20260506023122 50 0.0 0.0 0.01 0.31 0.28 98 1005.3
20260506023022 50 0.0 0.0 0.01 0.31 0.28 98 1005.3
20260506022922 50 0.0 0.0 0.01 0.31 0.28 98 1005.3
20260506022822 50 0.0 0.0 0.01 0.31 0.28 98 1005.4
20260506022723 50 0.0 0.0 0.01 0.31 0.28 98 1005.3
20260506022622 50 0.0 0.0 0.01 0.31 0.28 98 1005.4
20260506022522 50 0.0 0.0 0.01 0.31 0.28 98 1005.4
20260506022422 50 0.0 0.0 0.01 0.31 0.28 98 1005.4
20260506022322 50 0.0 1.0 0.01 0.31 0.28 98 1005.4
20260506022222 50 0.0 0.0 0.01 0.31 0.28 98 1005.4
20260506022122 50 0.0 0.0 0.01 0.31 0.28 98 1005.4
20260506022023 50 0.0 0.0 0.00 0.31 0.28 98 1005.4
20260506021922 50 0.0 0.0 0.00 0.31 0.28 98 1005.4
20260506021821 50 0.0 0.0 0.00 0.31 0.28 98 1005.5
20260506021722 50 0.0 0.0 0.00 0.31 0.28 98 1005.4
20260506021622 50 0.0 0.0 0.00 0.31 0.28 98 1005.4
20260506021522 50 0.0 0.0 0.00 0.31 0.28 98 1005.5
20260506021422 50 0.0 0.0 0.00 0.31 0.28 98 1005.5
20260506021322 50 0.0 0.0 0.00 0.31 0.28 98 1005.5
20260506021222 50 0.0 0.0 0.00 0.31 0.28 98 1005.5
20260506021122 50 0.0 0.0 0.01 0.31 0.28 98 1005.5
20260506021021 50 0.0 0.0 0.01 0.31 0.28 98 1005.5
20260506020923 50 0.0 0.0 0.01 0.31 0.28 98 1005.5
20260506020822 50 0.0 0.0 0.01 0.31 0.28 98 1005.5
20260506020722 50 0.0 0.0 0.01 0.31 0.28 98 1005.5
20260506020622 50 0.0 0.0 0.01 0.31 0.28 98 1005.5
20260506020522 50 0.0 0.0 0.01 0.31 0.28 98 1005.5
20260506020422 50 0.0 0.0 0.01 0.31 0.27 98 1005.5
20260506020322 50 0.0 0.0 0.01 0.31 0.27 98 1005.6
20260506020222 50 0.0 0.0 0.01 0.31 0.27 98 1005.5
20260506020122 50 0.0 0.0 0.01 0.31 0.27 98 1005.6
20260506020022 50 0.0 0.0 0.01 0.31 0.27 98 1005.6
20260506015922 50 0.0 0.0 0.01 0.31 0.27 98 1005.6
20260506015823 50 0.0 0.0 0.01 0.31 0.27 98 1005.6
20260506015722 50 0.0 0.0 0.01 0.31 0.27 98 1005.6
20260506015622 50 0.0 0.0 0.01 0.31 0.27 98 1005.6
20260506015522 50 0.0 0.0 0.01 0.31 0.27 98 1005.6
20260506015422 50 0.0 0.0 0.01 0.31 0.27 98 1005.6
20260506015322 50 0.0 0.0 0.01 0.31 0.27 98 1005.6
20260506015222 50 0.0 0.0 0.01 0.31 0.27 98 1005.6
20260506015122 50 0.0 0.0 0.02 0.31 0.27 98 1005.6
20260506015022 50 0.0 0.0 0.02 0.31 0.27 98 1005.6
20260506014921 50 0.0 0.0 0.02 0.31 0.27 98 1005.6
20260506014822 50 0.0 0.0 0.02 0.31 0.27 98 1005.6
20260506014723 50 0.0 0.0 0.02 0.31 0.27 98 1005.6
20260506014622 50 0.0 0.0 0.02 0.31 0.27 98 1005.6
20260506014522 50 0.0 0.0 0.02 0.31 0.27 98 1005.6
20260506014422 50 0.0 0.0 0.02 0.31 0.27 98 1005.6
20260506014322 50 0.0 0.0 0.02 0.31 0.26 98 1005.6
20260506014222 50 0.0 0.0 0.02 0.31 0.26 98 1005.7
20260506014122 50 0.0 0.0 0.02 0.31 0.26 98 1005.6
20260506014022 50 0.0 0.0 0.02 0.31 0.26 98 1005.7
20260506013921 50 40 1.0 2.0 0.02 0.31 0.26 98 1005.6
20260506013822 50 0.0 0.0 0.02 0.31 0.26 98 1005.7
20260506013722 50 0.0 0.0 0.03 0.31 0.26 98 1005.6
20260506013623 50 0.0 0.0 0.03 0.31 0.26 98 1005.7
20260506013522 50 16 2.0 3.0 0.03 0.31 0.26 98 1005.7
20260506013422 50 16 1.0 1.0 0.03 0.31 0.25 98 1005.7
20260506013322 50 0.0 0.0 0.03 0.31 0.25 98 1005.7
20260506013222 50 0.0 0.0 0.03 0.31 0.25 98 1005.7
20260506013121 50 0.0 0.0 0.03 0.31 0.25 98 1005.7
20260506013022 50 0.0 0.0 0.03 0.31 0.25 98 1005.8
20260506012922 50 32 2.0 2.0 0.04 0.31 0.25 98 1005.8
20260506012822 50 0.0 1.0 0.04 0.31 0.25 98 1005.7
20260506012722 50 0.0 0.0 0.04 0.31 0.25 98 1005.8
20260506012622 50 48 1.0 1.0 0.04 0.31 0.25 98 1005.7
20260506012522 50 0.0 0.0 0.04 0.31 0.25 98 1005.8
20260506012422 50 45 2.0 2.0 0.04 0.31 0.25 98 1005.8
20260506012322 50 0.0 0.0 0.04 0.31 0.25 98 1005.8
20260506012222 50 0.0 0.0 0.04 0.31 0.24 98 1005.8
20260506012122 50 32 1.0 1.0 0.04 0.31 0.24 98 1005.8
20260506012022 50 0.0 0.0 0.04 0.31 0.24 98 1005.8
20260506011922 50 0.0 0.0 0.04 0.31 0.24 98 1005.8
20260506011822 50 0.0 0.0 0.04 0.31 0.24 98 1005.9
20260506011722 50 0.0 0.0 0.04 0.31 0.24 98 1005.8
20260506011622 50 28 1.0 2.0 0.04 0.31 0.24 98 1005.8
20260506011522 50 40 3.0 3.0 0.04 0.31 0.24 98 1005.9
20260506011423 50 48 2.0 3.0 0.04 0.31 0.24 98 1005.8
20260506011321 50 333 2.0 2.0 0.04 0.31 0.24 98 1005.8
20260506011221 50 48 3.0 3.0 0.04 0.31 0.24 98 1005.9
20260506011122 50 40 4.0 4.0 0.03 0.30 0.24 98 1005.8
20260506011022 50 0.0 0.0 0.04 0.30 0.24 98 1005.8
20260506010922 50 0.0 0.0 0.04 0.30 0.24 98 1005.9
20260506010821 50 0.0 0.0 0.04 0.30 0.24 98 1005.9
20260506010722 50 54 3.0 3.0 0.04 0.30 0.24 98 1005.9
20260506010622 50 0.0 1.0 0.04 0.30 0.24 98 1005.9
20260506010522 51 0.0 0.0 0.04 0.30 0.24 98 1006.0
20260506010422 51 0.0 0.0 0.04 0.30 0.24 98 1006.0
20260506010323 51 0.0 0.0 0.04 0.30 0.24 98 1006.0
20260506010221 51 0.0 1.0 0.04 0.30 0.24 98 1006.0
20260506010121 51 46 1.0 1.0 0.05 0.30 0.24 98 1006.0
20260506010022 51 42 2.0 2.0 0.05 0.30 0.23 98 1006.0
20260506005922 51 59 3.0 3.0 0.05 0.30 0.23 98 1006.0
20260506005822 51 0.0 0.0 0.05 0.30 0.23 98 1006.0
20260506005722 51 0.0 0.0 0.05 0.30 0.23 98 1006.0
20260506005622 51 0.0 0.0 0.05 0.30 0.23 98 1006.0
20260506005522 51 0.0 0.0 0.06 0.30 0.23 98 1006.1
20260506005421 51 0.0 0.0 0.06 0.30 0.23 98 1006.1
20260506005321 51 0.0 0.0 0.06 0.30 0.23 98 1006.1
20260506005223 51 0.0 1.0 0.06 0.30 0.23 98 1006.1
20260506005122 51 61 1.0 2.0 0.05 0.29 0.22 98 1006.1
20260506005021 51 42 1.0 1.0 0.05 0.29 0.22 98 1006.1
20260506004922 51 0.0 0.0 0.05 0.29 0.22 98 1006.1
20260506004822 51 0.0 0.0 0.05 0.29 0.22 98 1006.1
20260506004721 51 0.0 0.0 0.05 0.29 0.22 98 1006.1
20260506004622 51 0.0 0.0 0.05 0.29 0.22 98 1006.1
20260506004522 51 0.0 0.0 0.05 0.29 0.22 98 1006.2
20260506004422 51 0.0 1.0 0.05 0.29 0.22 98 1006.2
20260506004322 51 0.0 0.0 0.04 0.28 0.21 98 1006.2
20260506004221 51 0.0 0.0 0.04 0.28 0.21 98 1006.2
20260506004122 51 38 1.0 1.0 0.05 0.28 0.21 98 1006.2
20260506004022 51 38 2.0 2.0 0.05 0.28 0.21 98 1006.2
20260506003922 51 47 1.0 1.0 0.05 0.28 0.21 98 1006.2
20260506003822 51 0.0 0.0 0.05 0.28 0.21 98 1006.2
20260506003722 51 0.0 0.0 0.04 0.28 0.20 98 1006.2
20260506003622 51 0.0 0.0 0.04 0.28 0.20 98 1006.2
20260506003522 51 0.0 0.0 0.05 0.28 0.20 98 1006.2
20260506003421 51 0.0 0.0 0.05 0.28 0.20 98 1006.2
20260506003321 51 47 2.0 4.0 0.05 0.28 0.20 98 1006.3
20260506003222 51 0.0 2.0 0.05 0.28 0.20 98 1006.2
20260506003121 51 0.0 0.0 0.05 0.28 0.20 98 1006.3
20260506003022 51 35 1.0 1.0 0.05 0.28 0.20 98 1006.3
20260506002921 51 0.0 0.0 0.04 0.27 0.20 98 1006.3
20260506002821 51 0.0 1.0 0.04 0.27 0.20 98 1006.3
20260506002721 51 47 2.0 3.0 0.04 0.27 0.20 98 1006.3
20260506002622 51 40 1.0 2.0 0.04 0.27 0.20 98 1006.3
20260506002521 51 48 4.0 4.0 0.04 0.27 0.20 98 1006.3
20260506002422 51 337 2.0 2.0 0.04 0.27 0.20 98 1006.3
20260506002322 51 0.0 0.0 0.04 0.27 0.19 98 1006.3
20260506002222 51 37 3.0 3.0 0.04 0.27 0.19 98 1006.3
20260506002122 51 49 2.0 2.0 0.04 0.27 0.19 98 1006.4
20260506002021 51 0.0 0.0 0.04 0.27 0.19 98 1006.4
20260506001923 51 40 1.0 1.0 0.04 0.27 0.19 98 1006.4
20260506001821 51 0.0 0.0 0.04 0.27 0.19 98 1006.4
20260506001722 51 0.0 0.0 0.04 0.27 0.19 98 1006.4
20260506001622 51 0.0 0.0 0.04 0.27 0.19 98 1006.4
20260506001522 51 38 1.0 1.0 0.04 0.27 0.18 98 1006.4
20260506001422 51 0.0 0.0 0.04 0.27 0.18 98 1006.4
20260506001322 51 0.0 0.0 0.04 0.27 0.18 98 1006.4
20260506001222 51 0.0 0.0 0.05 0.27 0.18 98 1006.5
20260506001122 51 0.0 1.0 0.05 0.27 0.18 98 1006.4
20260506001021 51 21 2.0 3.0 0.04 0.26 0.17 98 1006.5
20260506000921 51 34 4.0 4.0 0.04 0.26 0.17 98 1006.5
20260506000822 51 0.0 0.0 0.04 0.26 0.17 98 1006.5
20260506000721 51 0.0 0.0 0.04 0.26 0.17 98 1006.5
20260506000621 51 0.0 0.0 0.04 0.26 0.17 98 1006.5
20260506000521 51 0.0 0.0 0.04 0.26 0.17 98 1006.5
20260506000423 51 0.0 0.0 0.04 0.26 0.17 98 1006.5
20260506000323 51 0.0 0.0 0.04 0.26 0.17 97 1006.5
20260506000222 51 0.0 0.0 0.04 0.26 0.17 97 1006.5
20260506000122 51 0.0 0.0 0.03 0.25 0.16 98 1006.6
20260506000021 51 0.0 0.0 0.03 0.25 0.16 97 1006.5
20260505235921 51 0.0 0.0 0.03 0.25 0.16 98 1006.5
20260505235821 51 0.0 0.0 0.03 0.25 0.16 98 1006.6
20260505235722 51 0.0 0.0 0.03 0.25 0.16 97 1006.6
20260505235621 51 0.0 0.0 0.03 0.25 0.16 97 1006.6
20260505235521 51 0.0 0.0 0.02 0.24 0.15 97 1006.6
20260505235421 51 0.0 0.0 0.02 0.24 0.15 97 1006.6
20260505235322 51 0.0 0.0 0.02 0.24 0.15 97 1006.7
20260505235221 51 0.0 0.0 0.02 0.24 0.14 98 1006.6
20260505235121 51 0.0 0.0 0.02 0.24 0.14 98 1006.7
20260505235021 51 13 2.0 2.0 0.02 0.24 0.14 98 1006.7
20260505234921 51 0.0 0.0 0.02 0.24 0.14 98 1006.7
20260505234821 51 0.0 0.0 0.02 0.24 0.14 98 1006.7
20260505234721 51 0.0 0.0 0.02 0.24 0.14 98 1006.8
20260505234622 51 0.0 0.0 0.02 0.24 0.13 98 1006.7
20260505234522 51 0.0 0.0 0.03 0.24 0.13 98 1006.8
20260505234421 51 0.0 0.0 0.03 0.24 0.13 98 1006.8
20260505234321 51 0.0 0.0 0.03 0.24 0.13 98 1006.8
20260505234222 51 0.0 0.0 0.03 0.24 0.13 98 1006.8
20260505234121 51 0.0 0.0 0.02 0.24 0.13 98 1006.8
20260505234021 51 35 1.0 1.0 0.02 0.24 0.13 98 1006.8
20260505233922 51 0.0 0.0 0.02 0.24 0.13 98 1006.8
20260505233821 51 32 1.0 2.0 0.02 0.24 0.13 98 1006.8
20260505233721 51 0.0 0.0 0.02 0.24 0.13 98 1006.9
20260505233622 51 45 1.0 2.0 0.02 0.24 0.13 98 1006.9
20260505233522 51 0.0 0.0 0.02 0.23 0.12 98 1006.9
20260505233421 51 0.0 0.0 0.02 0.23 0.12 98 1006.9
20260505233322 51 0.0 0.0 0.02 0.23 0.12 98 1006.9
20260505233221 51 0.0 0.0 0.02 0.23 0.12 98 1006.9
20260505233122 51 0.0 0.0 0.02 0.23 0.12 98 1006.9
20260505233021 51 0.0 0.0 0.02 0.23 0.11 98 1006.9
20260505232922 51 0.0 0.0 0.02 0.23 0.11 98 1006.9
20260505232821 51 0.0 0.0 0.02 0.23 0.11 98 1006.9
20260505232721 51 0.0 0.0 0.02 0.23 0.11 98 1006.9
20260505232621 51 0.0 0.0 0.02 0.23 0.11 98 1006.9
20260505232521 51 0.0 0.0 0.02 0.23 0.11 98 1006.9
20260505232422 51 0.0 0.0 0.02 0.23 0.10 98 1006.9
20260505232321 51 0.0 0.0 0.02 0.23 0.10 98 1006.9
20260505232221 51 0.0 0.0 0.02 0.23 0.10 98 1006.9
20260505232121 51 0.0 0.0 0.02 0.23 0.10 98 1006.9
20260505232022 51 0.0 1.0 0.02 0.23 0.10 98 1007.0
20260505231922 51 0.0 0.0 0.02 0.23 0.09 98 1007.0
20260505231821 51 5 2.0 3.0 0.02 0.23 0.09 98 1006.9
20260505231722 51 0.0 0.0 0.02 0.23 0.09 98 1007.0
20260505231607 51 340 1.0 1.0 0.02 0.23 0.09 98 1006.9
20260505231507 51 0.0 0.0 0.02 0.23 0.09 98 1006.9
20260505231411 51 0.0 0.0 0.02 0.23 0.09 98 1006.9
20260505231258 51 0.0 0.0 0.02 0.24 0.09 98 1007.0
20260505231157 51 0.0 0.0 0.02 0.23 0.09 98 1006.9
20260505231057 51 0.0 0.0 0.02 0.23 0.09 98 1006.9
20260505230957 51 338 2.0 2.0 0.02 0.23 0.09 98 1006.9
20260505230858 51 0.0 0.0 0.02 0.23 0.09 98 1007.0
20260505230757 51 0.0 0.0 0.02 0.23 0.08 98 1007.0
20260505230657 51 0.0 0.0 0.02 0.23 0.08 98 1007.0
20260505230558 51 0.0 0.0 0.02 0.23 0.08 98 1007.0
20260505230457 51 0.0 0.0 0.02 0.23 0.08 98 1007.0
20260505230357 51 0.0 0.0 0.02 0.23 0.08 98 1007.0
20260505230257 51 0.0 1.0 0.02 0.23 0.08 98 1007.0
20260505230158 51 339 2.0 3.0 0.02 0.23 0.08 98 1007.0
20260505230057 51 336 1.0 1.0 0.02 0.23 0.07 98 1007.0
20260505225957 51 336 3.0 3.0 0.03 0.23 0.07 97 1007.0
20260505225857 51 336 3.0 3.0 0.03 0.23 0.07 97 1007.0
20260505225758 51 336 2.0 2.0 0.03 0.23 0.07 97 1007.0
20260505225657 51 0.0 0.0 0.03 0.23 0.07 97 1007.0
20260505225557 51 336 2.0 2.0 0.03 0.23 0.07 97 1007.1
20260505225457 51 0.0 0.0 0.03 0.23 0.07 97 1007.1
20260505225357 51 0.0 0.0 0.03 0.23 0.06 97 1007.1
20260505225258 51 335 1.0 1.0 0.03 0.23 0.06 97 1007.1
20260505225157 51 335 2.0 2.0 0.03 0.23 0.06 97 1007.1
20260505225058 51 0.0 0.0 0.03 0.23 0.06 97 1007.1
20260505224957 51 334 1.0 2.0 0.03 0.23 0.06 97 1007.1
20260505224857 51 0.0 0.0 0.03 0.23 0.06 97 1007.1
20260505224757 51 0.0 0.0 0.03 0.23 0.06 97 1007.1
20260505224658 51 0.0 0.0 0.03 0.23 0.06 97 1007.1
20260505224557 51 0.0 0.0 0.03 0.23 0.06 97 1007.1
20260505224457 51 0.0 0.0 0.02 0.22 0.06 97 1007.1
20260505224358 51 333 2.0 2.0 0.02 0.22 0.06 97 1007.1
20260505224247 51 333 1.0 1.0 0.02 0.22 0.06 97 1007.1
20260505224147 51 333 2.0 3.0 0.02 0.22 0.06 97 1007.1
20260505224047 51 338 3.0 3.0 0.02 0.22 0.06 97 1007.1
20260505223948 51 337 1.0 1.0 0.02 0.22 0.05 97 1007.1
20260505223847 51 0.0 0.0 0.02 0.22 0.05 97 1007.1
20260505223747 51 0.0 0.0 0.02 0.22 0.05 97 1007.2
20260505223648 51 0.0 0.0 0.02 0.22 0.05 97 1007.2
20260505223548 51 335 1.0 1.0 0.02 0.22 0.05 97 1007.2
20260505223447 51 0.0 0.0 0.02 0.22 0.05 97 1007.2
20260505223348 51 0.0 0.0 0.02 0.22 0.05 97 1007.3
20260505223247 51 0.0 0.0 0.02 0.22 0.05 97 1007.3
20260505223147 51 0.0 0.0 0.02 0.22 0.05 97 1007.3
20260505223048 51 0.0 0.0 0.02 0.21 0.04 97 1007.3
20260505222947 51 0.0 0.0 0.02 0.21 0.04 97 1007.3
20260505222848 51 0.0 0.0 0.02 0.21 0.04 97 1007.3
20260505222748 51 0.0 0.0 0.02 0.21 0.04 97 1007.2
20260505222647 51 336 3.0 3.0 0.02 0.21 0.03 97 1007.3
20260505222547 51 0.0 0.0 0.02 0.21 0.03 97 1007.3
20260505222448 51 339 1.0 1.0 0.02 0.21 0.03 97 1007.3
20260505222348 51 339 2.0 2.0 0.02 0.21 0.03 97 1007.3
20260505222247 51 340 1.0 2.0 0.02 0.21 0.03 97 1007.3
20260505222147 51 340 1.0 1.0 0.02 0.21 0.03 97 1007.3
20260505222048 51 0.0 0.0 0.02 0.21 0.02 97 1007.3
20260505221947 51 0.0 0.0 0.02 0.21 0.02 97 1007.3
20260505221847 51 0.0 0.0 0.02 0.21 0.02 97 1007.3
20260505221748 51 0.0 0.0 0.02 0.21 0.02 97 1007.3
20260505221647 51 0.0 0.0 0.02 0.21 0.02 97 1007.3
20260505221548 51 0.0 0.0 0.02 0.21 0.02 97 1007.3
20260505221447 51 340 1.0 2.0 0.02 0.21 0.02 97 1007.3
20260505221348 51 340 2.0 2.0 0.02 0.21 0.02 97 1007.3
20260505221248 51 336 1.0 1.0 0.02 0.21 0.02 97 1007.3
20260505221147 51 0.0 0.0 0.02 0.21 0.02 97 1007.3
20260505221047 51 336 2.0 2.0 0.02 0.21 0.02 97 1007.3
20260505220947 51 336 2.0 2.0 0.02 0.21 0.02 97 1007.3
20260505220837 52 336 1.0 1.0 0.02 0.20 0.01 97 1007.4
20260505220737 52 0.0 0.0 0.02 0.20 0.01 97 1007.4
20260505220638 52 0.0 0.0 0.02 0.20 0.01 97 1007.3
20260505220537 52 0.0 0.0 0.02 0.20 0.00 97 1007.3
20260505220437 52 336 2.0 2.0 0.02 0.20 0.00 97 1007.3
20260505220338 52 0.0 0.0 0.02 0.20 0.00 97 1007.3
20260505220238 52 0.0 0.0 0.02 0.20 0.00 97 1007.3
20260505220137 52 0.0 0.0 0.02 0.20 0.00 97 1007.3
20260505220037 52 0.0 0.0 0.02 0.20 0.00 97 1007.4
20260505215922 52 0.0 0.0 0.02 0.20 0.76 97 1007.4
20260505215822 52 0.0 0.0 0.02 0.20 0.76 97 1007.4
20260505215722 52 336 3.0 3.0 0.02 0.20 0.76 97 1007.4
20260505215622 52 0.0 0.0 0.02 0.20 0.76 97 1007.4
20260505215523 52 335 1.0 1.0 0.02 0.20 0.76 97 1007.4
20260505215422 52 334 2.0 2.0 0.02 0.20 0.76 97 1007.5
20260505215322 52 333 2.0 3.0 0.02 0.20 0.76 97 1007.4
20260505215222 52 335 1.0 1.0 0.03 0.20 0.76 97 1007.5
20260505215123 52 0.0 1.0 0.03 0.20 0.76 97 1007.5
20260505215022 52 335 1.0 3.0 0.03 0.20 0.75 97 1007.5
20260505214922 52 333 1.0 1.0 0.03 0.20 0.75 97 1007.5
20260505214822 52 0.0 0.0 0.03 0.20 0.75 97 1007.6
20260505214722 52 0.0 0.0 0.03 0.20 0.75 97 1007.6
20260505214622 52 340 1.0 1.0 0.03 0.20 0.74 97 1007.6
20260505214522 52 0.0 0.0 0.03 0.20 0.74 97 1007.6
20260505214423 52 0.0 0.0 0.03 0.20 0.74 97 1007.6
20260505214322 52 341 1.0 2.0 0.03 0.20 0.74 97 1007.6
20260505214222 52 0.0 0.0 0.03 0.20 0.74 97 1007.6
20260505214122 52 0.0 0.0 0.03 0.20 0.73 97 1007.6
20260505214022 52 0.0 0.0 0.03 0.20 0.73 97 1007.7
20260505213922 52 0.0 0.0 0.03 0.20 0.73 97 1007.6
20260505213822 52 342 1.0 2.0 0.04 0.20 0.73 97 1007.6
20260505213722 52 0.0 0.0 0.04 0.20 0.72 97 1007.7
20260505213622 52 0.0 0.0 0.04 0.20 0.72 97 1007.7
20260505213522 52 342 2.0 2.0 0.04 0.20 0.72 97 1007.7
20260505213422 52 0.0 0.0 0.04 0.20 0.72 97 1007.7
20260505213323 52 0.0 0.0 0.04 0.20 0.72 97 1007.6
20260505213222 52 0.0 0.0 0.04 0.20 0.72 97 1007.6
20260505213122 52 0.0 1.0 0.04 0.20 0.72 97 1007.6
20260505213022 52 0.0 0.0 0.04 0.20 0.71 97 1007.6
20260505212922 52 0.0 0.0 0.04 0.20 0.71 97 1007.6
20260505212822 52 0.0 0.0 0.04 0.20 0.71 97 1007.6
20260505212722 52 0.0 0.0 0.04 0.20 0.70 97 1007.6
20260505212622 52 0.0 0.0 0.04 0.20 0.70 97 1007.7
20260505212522 52 0.0 0.0 0.03 0.19 0.69 97 1007.7
20260505212422 52 0.0 0.0 0.03 0.19 0.69 97 1007.7
20260505212322 52 0.0 0.0 0.03 0.19 0.69 97 1007.7
20260505212223 52 0.0 0.0 0.03 0.19 0.69 97 1007.7
20260505212122 52 0.0 0.0 0.03 0.19 0.69 97 1007.7
20260505212022 52 0.0 0.0 0.03 0.19 0.69 97 1007.7
20260505211922 52 0.0 0.0 0.03 0.19 0.69 97 1007.7
20260505211822 52 0.0 0.0 0.03 0.19 0.69 97 1007.6
20260505211722 52 0.0 0.0 0.03 0.19 0.68 97 1007.7
20260505211622 52 0.0 0.0 0.03 0.19 0.68 97 1007.7
20260505211522 52 0.0 0.0 0.03 0.19 0.68 97 1007.7
20260505211422 52 0.0 0.0 0.03 0.19 0.67 97 1007.7
20260505211322 52 0.0 0.0 0.03 0.19 0.66 97 1007.7
20260505211222 52 0.0 0.0 0.03 0.19 0.66 97 1007.7
20260505211123 52 0.0 0.0 0.03 0.19 0.65 97 1007.7
20260505211022 52 0.0 0.0 0.03 0.19 0.65 97 1007.7
20260505210922 52 0.0 0.0 0.03 0.19 0.65 97 1007.7
20260505210822 52 0.0 0.0 0.03 0.19 0.65 97 1007.7
20260505210722 52 0.0 0.0 0.03 0.19 0.64 97 1007.7
20260505210622 52 0.0 0.0 0.02 0.18 0.63 97 1007.7
20260505210522 52 0.0 0.0 0.02 0.18 0.62 97 1007.7
20260505210422 52 0.0 0.0 0.02 0.18 0.62 97 1007.7
20260505210322 52 0.0 0.0 0.02 0.18 0.62 97 1007.7
20260505210222 52 0.0 0.0 0.02 0.18 0.61 97 1007.7
20260505210122 52 0.0 0.0 0.02 0.18 0.61 97 1007.7
20260505210023 52 0.0 0.0 0.02 0.18 0.60 97 1007.7
20260505205922 52 0.0 0.0 0.02 0.17 0.59 97 1007.7
20260505205822 52 0.0 0.0 0.02 0.17 0.59 97 1007.7
20260505205722 52 0.0 0.0 0.02 0.17 0.58 97 1007.7
20260505205623 52 0.0 0.0 0.02 0.17 0.58 97 1007.8
20260505205522 52 0.0 0.0 0.02 0.17 0.57 97 1007.8
20260505205422 52 54 1.0 2.0 0.02 0.17 0.57 97 1007.8
20260505205322 52 0.0 0.0 0.02 0.17 0.57 97 1007.8
20260505205222 52 0.0 0.0 0.02 0.17 0.56 97 1007.8
20260505205122 52 49 4.0 4.0 0.02 0.17 0.56 97 1007.8
20260505205022 52 0.0 0.0 0.02 0.17 0.56 97 1007.8
20260505204923 52 28 1.0 2.0 0.02 0.17 0.55 97 1007.8
20260505204822 52 0.0 0.0 0.02 0.17 0.55 97 1007.8
20260505204722 52 0.0 0.0 0.02 0.17 0.55 97 1007.8
20260505204622 52 0.0 0.0 0.02 0.17 0.55 97 1007.8
20260505204523 52 0.0 0.0 0.02 0.17 0.55 97 1007.8
20260505204422 52 0.0 0.0 0.02 0.17 0.54 97 1007.8
20260505204322 52 0.0 0.0 0.02 0.17 0.54 97 1007.8
20260505204222 52 0.0 0.0 0.02 0.17 0.54 97 1007.8
20260505204122 52 0.0 0.0 0.02 0.17 0.54 97 1007.8
20260505204022 52 0.0 0.0 0.02 0.17 0.54 97 1007.8
20260505203922 52 0.0 0.0 0.02 0.17 0.54 97 1007.8
20260505203823 52 0.0 0.0 0.02 0.16 0.54 97 1007.8
20260505203722 52 0.0 0.0 0.02 0.16 0.54 97 1007.8
20260505203622 52 0.0 0.0 0.02 0.16 0.54 97 1007.8
20260505203522 52 0.0 0.0 0.02 0.16 0.54 97 1007.8
20260505203423 52 0.0 0.0 0.02 0.16 0.54 97 1007.8
20260505203322 52 0.0 0.0 0.02 0.16 0.53 97 1007.8
20260505203222 52 0.0 0.0 0.02 0.16 0.53 97 1007.7
20260505203122 52 0.0 0.0 0.02 0.16 0.53 97 1007.8
20260505203022 52 0.0 0.0 0.02 0.16 0.53 97 1007.7
20260505202922 52 0.0 0.0 0.02 0.16 0.53 97 1007.7
20260505202822 52 0.0 0.0 0.02 0.16 0.52 97 1007.8
20260505202722 52 0.0 0.0 0.02 0.16 0.52 97 1007.8
20260505202622 52 0.0 0.0 0.02 0.16 0.52 97 1007.8
20260505202522 52 0.0 0.0 0.02 0.16 0.52 97 1007.8
20260505202422 52 0.0 0.0 0.02 0.16 0.52 97 1007.7
20260505202322 52 0.0 0.0 0.02 0.16 0.52 97 1007.8
20260505202222 52 0.0 0.0 0.02 0.16 0.51 97 1007.8
20260505202122 52 0.0 0.0 0.02 0.16 0.51 97 1007.8
20260505202022 52 0.0 0.0 0.02 0.16 0.51 97 1007.8
20260505201922 52 0.0 0.0 0.02 0.16 0.51 97 1007.8
20260505201822 52 0.0 0.0 0.02 0.16 0.50 97 1007.8
20260505201722 52 0.0 0.0 0.02 0.16 0.50 97 1007.7
20260505201623 52 0.0 0.0 0.02 0.16 0.50 97 1007.7
20260505201522 52 0.0 0.0 0.02 0.16 0.50 97 1007.7
20260505201422 52 0.0 0.0 0.02 0.16 0.50 97 1007.7
20260505201322 52 0.0 0.0 0.02 0.16 0.50 97 1007.7
20260505201222 52 5 1.0 2.0 0.02 0.16 0.50 97 1007.8
20260505201122 52 0.0 0.0 0.02 0.16 0.50 97 1007.7
20260505201022 52 0.0 0.0 0.02 0.16 0.50 97 1007.7
20260505200922 52 0.0 0.0 0.02 0.16 0.50 97 1007.7
20260505200822 52 0.0 0.0 0.03 0.16 0.50 97 1007.7
20260505200722 52 0.0 0.0 0.03 0.16 0.50 97 1007.7
20260505200622 52 0.0 0.0 0.03 0.16 0.49 97 1007.8
20260505200523 52 0.0 0.0 0.03 0.16 0.49 97 1007.8
20260505200422 52 0.0 0.0 0.03 0.16 0.49 97 1007.7
20260505200322 52 0.0 0.0 0.03 0.16 0.49 97 1007.7
20260505200222 52 0.0 0.0 0.03 0.16 0.49 97 1007.7
20260505200122 52 0.0 0.0 0.03 0.16 0.49 97 1007.7
20260505200022 52 0.0 0.0 0.03 0.16 0.49 97 1007.7
20260505195922 52 0.0 0.0 0.03 0.16 0.49 97 1007.7
20260505195822 52 0.0 0.0 0.03 0.16 0.49 97 1007.7
20260505195722 52 0.0 0.0 0.02 0.15 0.48 97 1007.7
20260505195622 52 0.0 0.0 0.02 0.15 0.48 97 1007.7
20260505195521 52 0.0 0.0 0.02 0.15 0.48 97 1007.7
20260505195423 52 0.0 0.0 0.02 0.15 0.48 97 1007.7
20260505195322 52 0.0 0.0 0.02 0.15 0.48 97 1007.7
20260505195222 52 0.0 0.0 0.02 0.15 0.48 97 1007.7
20260505195122 52 0.0 0.0 0.02 0.15 0.48 97 1007.7
20260505195022 52 51 1.0 1.0 0.02 0.15 0.48 97 1007.7
20260505194922 52 51 1.0 2.0 0.02 0.14 0.47 97 1007.7
20260505194822 52 44 1.0 2.0 0.02 0.14 0.47 97 1007.7
20260505194722 52 0.0 0.0 0.02 0.14 0.47 97 1007.7
20260505194622 52 0.0 0.0 0.02 0.14 0.47 97 1007.7
20260505194522 52 0.0 0.0 0.02 0.14 0.47 96 1007.7
20260505194422 52 55 3.0 3.0 0.02 0.14 0.47 96 1007.7
20260505194323 52 53 2.0 2.0 0.03 0.14 0.47 96 1007.7
20260505194222 53 0.0 0.0 0.03 0.14 0.47 97 1007.7
20260505194122 52 0.0 0.0 0.03 0.14 0.47 97 1007.7
20260505194021 53 316 1.0 4.0 0.03 0.14 0.46 97 1007.7
20260505193922 53 0.0 0.0 0.03 0.14 0.46 97 1007.7
20260505193822 53 49 4.0 4.0 0.03 0.14 0.46 97 1007.7
20260505193722 53 63 2.0 3.0 0.03 0.14 0.46 97 1007.7
20260505193622 53 48 2.0 2.0 0.03 0.14 0.46 97 1007.7
20260505193522 53 0.0 0.0 0.03 0.14 0.46 97 1007.7
20260505193422 53 0.0 0.0 0.03 0.14 0.46 97 1007.8
20260505193322 53 0.0 1.0 0.03 0.14 0.46 97 1007.7
20260505193223 53 36 2.0 2.0 0.03 0.14 0.46 97 1007.7
20260505193122 53 12 1.0 2.0 0.03 0.14 0.46 97 1007.8
20260505193021 53 0.0 0.0 0.03 0.14 0.46 97 1007.7
20260505192922 53 0.0 0.0 0.03 0.14 0.46 97 1007.7
20260505192823 53 0.0 0.0 0.03 0.14 0.46 97 1007.7
20260505192721 53 45 2.0 3.0 0.03 0.14 0.45 96 1007.7
20260505192622 53 0.0 0.0 0.03 0.14 0.45 96 1007.7
20260505192522 53 35 2.0 2.0 0.03 0.14 0.45 96 1007.7
20260505192422 53 0.0 0.0 0.03 0.14 0.45 96 1007.7
20260505192322 53 46 1.0 1.0 0.03 0.14 0.45 96 1007.7
20260505192222 53 0.0 0.0 0.02 0.13 0.44 96 1007.7
20260505192123 53 0.0 0.0 0.02 0.13 0.44 96 1007.7
20260505192021 53 0.0 0.0 0.02 0.13 0.44 96 1007.7
20260505191922 53 0.0 0.0 0.02 0.13 0.44 96 1007.7
20260505191822 53 0.0 0.0 0.02 0.13 0.44 96 1007.7
20260505191722 53 0.0 0.0 0.02 0.13 0.43 96 1007.7
20260505191622 53 0.0 0.0 0.02 0.13 0.43 96 1007.7
20260505191522 53 0.0 0.0 0.02 0.13 0.43 96 1007.7
20260505191422 53 0.0 0.0 0.02 0.13 0.43 96 1007.7
20260505191322 53 0.0 0.0 0.02 0.13 0.43 96 1007.7
20260505191221 53 0.0 0.0 0.02 0.13 0.43 96 1007.7
20260505191122 53 0.0 0.0 0.02 0.13 0.43 96 1007.7
20260505191022 53 0.0 1.0 0.02 0.13 0.43 96 1007.7
20260505190922 53 40 1.0 1.0 0.02 0.13 0.43 96 1007.7
20260505190822 53 0.0 0.0 0.02 0.13 0.42 96 1007.7
20260505190722 53 37 3.0 3.0 0.02 0.13 0.42 96 1007.7
20260505190622 53 46 1.0 1.0 0.02 0.13 0.42 96 1007.7
20260505190522 53 0.0 0.0 0.02 0.13 0.41 96 1007.7
20260505190422 53 0.0 1.0 0.02 0.13 0.41 96 1007.7
20260505190322 53 29 2.0 2.0 0.02 0.13 0.41 96 1007.7
20260505190221 53 8 2.0 2.0 0.02 0.13 0.41 96 1007.7
20260505190121 53 0.0 0.0 0.02 0.13 0.41 96 1007.7
20260505190022 53 0.0 0.0 0.02 0.13 0.40 96 1007.7
20260505185923 53 0.0 0.0 0.02 0.13 0.40 96 1007.7
20260505185821 53 0.0 0.0 0.02 0.13 0.40 96 1007.7
20260505185721 53 0.0 0.0 0.02 0.13 0.39 96 1007.7
20260505185622 53 0.0 0.0 0.02 0.13 0.39 96 1007.7
20260505185522 53 0.0 0.0 0.02 0.13 0.39 96 1007.7
20260505185422 53 0.0 0.0 0.02 0.13 0.39 96 1007.6
20260505185322 53 0.0 0.0 0.02 0.13 0.38 96 1007.7
20260505185222 53 0.0 0.0 0.02 0.13 0.38 96 1007.7
20260505185122 53 0.0 0.0 0.02 0.13 0.38 96 1007.7
20260505185022 53 0.0 0.0 0.02 0.13 0.37 96 1007.6
20260505184922 53 0.0 1.0 0.02 0.13 0.37 96 1007.7
20260505184823 53 33 1.0 1.0 0.01 0.12 0.36 96 1007.7
20260505184722 53 0.0 0.0 0.01 0.12 0.36 96 1007.6
20260505184621 53 0.0 0.0 0.01 0.12 0.36 96 1007.7
20260505184522 53 0.0 0.0 0.01 0.12 0.35 96 1007.6
20260505184422 53 0.0 0.0 0.01 0.12 0.35 96 1007.7
20260505184322 53 0.0 0.0 0.00 0.11 0.35 96 1007.7
20260505184222 53 40 3.0 4.0 0.00 0.11 0.35 96 1007.7
20260505184122 53 0.0 0.0 0.00 0.11 0.35 96 1007.7
20260505184021 53 42 1.0 1.0 0.00 0.11 0.35 96 1007.7
20260505183921 53 0.0 0.0 0.01 0.11 0.34 96 1007.8
20260505183822 53 39 1.0 2.0 0.01 0.11 0.34 96 1007.7
20260505183722 53 0.0 0.0 0.01 0.11 0.33 96 1007.8
20260505183622 53 0.0 0.0 0.01 0.11 0.33 96 1007.7
20260505183522 53 0.0 0.0 0.01 0.11 0.33 96 1007.8
20260505183422 53 0.0 0.0 0.01 0.11 0.33 96 1007.7
20260505183322 53 0.0 0.0 0.01 0.12 0.33 96 1007.7
20260505183222 53 0.0 0.0 0.01 0.12 0.32 96 1007.7
20260505183122 53 0.0 0.0 0.01 0.12 0.32 96 1007.8
20260505183022 53 0.0 0.0 0.01 0.12 0.32 95 1007.7
20260505182921 53 0.0 0.0 0.01 0.12 0.32 95 1007.7
20260505182821 53 0.0 0.0 0.01 0.13 0.31 95 1007.7
20260505182721 53 0.0 0.0 0.01 0.13 0.31 95 1007.7
20260505182622 53 0.0 0.0 0.01 0.13 0.31 95 1007.7
20260505182521 54 0.0 0.0 0.01 0.13 0.31 95 1007.8
20260505182421 54 0.0 0.0 0.01 0.13 0.31 95 1007.7
20260505182321 54 342 1.0 1.0 0.01 0.13 0.31 95 1007.7
20260505182222 54 0.0 1.0 0.01 0.13 0.31 95 1007.7
20260505182122 54 0.0 0.0 0.01 0.13 0.31 95 1007.7
20260505182021 54 339 3.0 3.0 0.01 0.13 0.31 95 1007.7
20260505181922 54 331 2.0 2.0 0.01 0.13 0.31 95 1007.7
20260505181821 54 331 2.0 2.0 0.01 0.13 0.31 95 1007.7
20260505181721 54 335 3.0 3.0 0.01 0.13 0.30 95 1007.8
20260505181622 54 355 2.0 2.0 0.01 0.13 0.30 95 1007.7
20260505181522 54 0.0 0.0 0.01 0.13 0.30 95 1007.7
20260505181422 54 0.0 0.0 0.01 0.13 0.30 95 1007.8
20260505181321 54 331 4.0 4.0 0.01 0.14 0.30 95 1007.7
20260505181221 54 330 4.0 4.0 0.01 0.14 0.30 95 1007.7
20260505181123 54 0.0 1.0 0.01 0.14 0.30 95 1007.7
20260505181022 54 0.0 0.0 0.01 0.14 0.29 95 1007.7
20260505180921 54 331 1.0 1.0 0.01 0.14 0.29 95 1007.8
20260505180822 54 0.0 0.0 0.01 0.14 0.29 95 1007.8
20260505180721 54 328 1.0 2.0 0.01 0.14 0.29 95 1007.8
20260505180622 54 338 2.0 2.0 0.01 0.14 0.29 95 1007.8
20260505180521 54 338 3.0 3.0 0.01 0.14 0.29 95 1007.8
20260505180422 54 337 4.0 4.0 0.01 0.14 0.28 95 1007.8
20260505180322 54 0.0 0.0 0.01 0.14 0.28 94 1007.8
20260505180222 54 336 2.0 2.0 0.01 0.14 0.28 94 1007.8
20260505180121 54 0.0 0.0 0.01 0.14 0.28 94 1007.8
20260505180022 54 336 4.0 4.0 0.01 0.14 0.28 94 1007.8
20260505175922 54 347 1.0 1.0 0.01 0.14 0.28 94 1007.8
20260505175822 54 335 1.0 1.0 0.01 0.14 0.28 94 1007.8
20260505175722 54 48 1.0 1.0 0.01 0.14 0.28 94 1007.8
20260505175621 54 0.0 0.0 0.01 0.14 0.28 94 1007.7
20260505175522 54 0.0 0.0 0.01 0.14 0.28 94 1007.7
20260505175421 54 0.0 0.0 0.01 0.14 0.28 94 1007.8
20260505175322 54 0.0 0.0 0.01 0.15 0.28 94 1007.7
20260505175221 54 339 1.0 1.0 0.01 0.15 0.28 94 1007.7
20260505175122 54 340 1.0 2.0 0.01 0.15 0.28 94 1007.7
20260505175021 54 327 2.0 4.0 0.01 0.15 0.27 94 1007.7
20260505174922 54 0.0 0.0 0.01 0.15 0.27 94 1007.8
20260505174821 54 334 1.0 1.0 0.01 0.15 0.27 94 1007.7
20260505174721 54 334 2.0 2.0 0.01 0.15 0.27 94 1007.8
20260505174621 54 336 2.0 3.0 0.01 0.15 0.27 94 1007.8
20260505174522 54 338 2.0 3.0 0.01 0.15 0.27 94 1007.8
20260505174422 54 320 2.0 2.0 0.01 0.15 0.26 94 1007.7
20260505174322 54 336 4.0 4.0 0.01 0.15 0.26 94 1007.7
20260505174222 54 332 3.0 3.0 0.01 0.15 0.26 94 1007.8
20260505174121 54 329 3.0 3.0 0.01 0.16 0.26 94 1007.8
20260505174021 54 327 4.0 4.0 0.01 0.16 0.26 94 1007.8
20260505173922 55 325 5.0 5.0 0.00 0.15 0.25 94 1007.8
20260505173822 55 336 4.0 4.0 0.00 0.15 0.25 94 1007.8
20260505173722 55 338 3.0 4.0 0.00 0.15 0.25 93 1007.8
20260505173622 55 0.0 0.0 0.00 0.15 0.25 93 1007.8
20260505173521 55 339 2.0 2.0 0.00 0.15 0.25 93 1007.8
20260505173421 55 340 3.0 3.0 0.00 0.16 0.24 93 1007.9
20260505173322 55 322 3.0 3.0 0.00 0.16 0.24 93 1007.8
20260505173221 55 321 2.0 3.0 0.00 0.16 0.24 94 1007.8
20260505173122 55 321 3.0 4.0 0.00 0.16 0.24 94 1007.8
20260505173021 55 338 4.0 4.0 0.00 0.16 0.24 94 1007.8
20260505172922 55 0.0 0.0 0.00 0.16 0.24 94 1007.8
20260505172822 55 0.0 0.0 0.00 0.16 0.24 93 1007.8
20260505172722 55 331 2.0 3.0 0.00 0.16 0.24 93 1007.8
20260505172622 55 331 3.0 3.0 0.00 0.16 0.24 93 1007.8
20260505172522 55 331 4.0 4.0 0.00 0.16 0.24 93 1007.8
20260505172421 55 332 5.0 5.0 0.00 0.16 0.24 93 1007.8
20260505172322 55 0.0 0.0 0.00 0.16 0.24 93 1007.8
20260505172221 55 332 3.0 3.0 0.00 0.16 0.24 93 1007.8
20260505172122 55 0.0 0.0 0.00 0.16 0.24 93 1007.8
20260505172022 55 0.0 0.0 0.00 0.16 0.24 93 1007.8
20260505171921 55 337 2.0 2.0 0.00 0.16 0.24 93 1007.8
20260505171821 55 0.0 0.0 0.00 0.16 0.24 93 1007.9
20260505171722 55 337 1.0 2.0 0.00 0.16 0.24 93 1007.8
20260505171622 55 337 3.0 3.0 0.00 0.16 0.24 93 1007.8
20260505171522 55 333 2.0 2.0 0.00 0.16 0.24 93 1007.8
20260505171422 55 335 4.0 4.0 0.00 0.16 0.24 93 1007.8
20260505171321 55 336 3.0 3.0 0.00 0.16 0.24 93 1007.8
20260505171222 55 339 3.0 3.0 0.00 0.17 0.24 93 1007.8
20260505171121 55 330 3.0 3.0 0.00 0.17 0.24 93 1007.8
20260505171022 55 336 4.0 4.0 0.00 0.17 0.24 93 1007.8
20260505170923 55 331 5.0 6.0 0.00 0.17 0.24 93 1007.8
20260505170821 55 0.0 0.0 0.00 0.17 0.24 93 1007.7
20260505170721 55 342 2.0 2.0 0.00 0.17 0.24 93 1007.8
20260505170622 55 342 4.0 4.0 0.00 0.17 0.24 93 1007.8
20260505170522 55 334 4.0 5.0 0.00 0.17 0.24 93 1007.8
20260505170421 55 331 4.0 5.0 0.00 0.17 0.24 93 1007.8
20260505170322 55 315 3.0 4.0 0.00 0.17 0.24 93 1007.8
20260505170221 55 0.0 0.0 0.00 0.17 0.24 93 1007.8
20260505170122 55 0.0 0.0 0.00 0.17 0.24 93 1007.8
20260505170021 55 328 2.0 2.0 0.00 0.17 0.24 93 1007.8
20260505165921 55 329 1.0 1.0 0.00 0.17 0.24 93 1007.8
20260505165822 55 329 2.0 2.0 0.00 0.17 0.24 93 1007.8
20260505165722 55 340 4.0 4.0 0.00 0.17 0.24 93 1007.8
20260505165622 55 321 4.0 4.0 0.00 0.17 0.24 93 1007.8
20260505165522 55 0.0 0.0 0.00 0.17 0.24 93 1007.8
20260505165422 55 336 1.0 1.0 0.00 0.17 0.24 93 1007.7
20260505165321 55 0.0 0.0 0.00 0.17 0.24 93 1007.7
20260505165221 55 339 2.0 2.0 0.00 0.17 0.24 93 1007.8
20260505165121 55 340 3.0 3.0 0.00 0.17 0.24 93 1007.8
20260505165021 55 0.0 0.0 0.00 0.17 0.24 93 1007.8
20260505164922 55 341 3.0 4.0 0.00 0.17 0.24 93 1007.8
20260505164821 55 336 3.0 3.0 0.00 0.17 0.24 93 1007.7
20260505164722 55 335 3.0 3.0 0.00 0.17 0.24 93 1007.7
20260505164622 55 336 5.0 5.0 0.00 0.17 0.24 93 1007.7
20260505164521 55 340 1.0 2.0 0.00 0.17 0.24 93 1007.8
20260505164421 55 343 3.0 4.0 0.00 0.17 0.24 93 1007.8
20260505164322 55 347 3.0 3.0 0.00 0.17 0.24 93 1007.8
20260505164222 55 325 5.0 6.0 0.00 0.17 0.24 93 1007.8
20260505164122 55 348 3.0 3.0 0.00 0.17 0.24 93 1007.8
20260505164021 55 348 3.0 4.0 0.00 0.17 0.24 93 1007.8
20260505163922 55 337 3.0 3.0 0.00 0.17 0.24 93 1007.8
20260505163821 55 329 3.0 4.0 0.00 0.17 0.24 93 1007.8
20260505163721 55 331 4.0 4.0 0.00 0.17 0.24 93 1007.9
20260505163622 55 325 6.0 6.0 0.00 0.17 0.24 93 1007.9
20260505163521 55 348 2.0 5.0 0.00 0.17 0.24 93 1007.9
20260505163421 55 0.0 0.0 0.00 0.17 0.24 93 1007.9
20260505163321 55 339 3.0 3.0 0.00 0.17 0.24 93 1008.0
20260505163222 55 342 2.0 3.0 0.00 0.17 0.24 93 1007.9
20260505163121 55 341 4.0 4.0 0.00 0.17 0.24 93 1007.9
20260505163021 55 346 5.0 5.0 0.00 0.17 0.24 93 1008.0
20260505162921 55 323 4.0 4.0 0.00 0.17 0.24 93 1008.0
20260505162822 55 331 5.0 5.0 0.00 0.17 0.24 93 1008.0
20260505162721 55 324 4.0 5.0 0.00 0.17 0.24 93 1008.0
20260505162621 55 329 3.0 3.0 0.00 0.17 0.24 92 1007.9
20260505162522 55 341 2.0 2.0 0.00 0.17 0.24 92 1008.0
20260505162421 55 0.0 0.0 0.00 0.17 0.24 92 1008.0
20260505162321 55 338 3.0 5.0 0.00 0.17 0.24 92 1008.0
20260505162221 55 332 5.0 5.0 0.00 0.17 0.24 92 1007.9
20260505162122 55 329 1.0 2.0 0.00 0.17 0.24 92 1008.0
20260505162007 55 346 2.0 3.0 0.00 0.17 0.24 92 1008.0
20260505161912 56 337 5.0 5.0 0.00 0.17 0.24 93 1008.0
20260505161757 56 325 1.0 1.0 0.00 0.17 0.24 92 1008.0
20260505161647 56 330 5.0 6.0 0.00 0.17 0.24 92 1008.0
20260505161547 56 331 4.0 4.0 0.00 0.17 0.24 92 1007.9
20260505161447 56 334 5.0 5.0 0.00 0.17 0.24 92 1008.1
20260505161348 56 340 3.0 4.0 0.00 0.17 0.24 92 1008.1
20260505161247 56 337 5.0 5.0 0.00 0.17 0.24 92 1008.1
20260505161147 56 336 5.0 7.0 0.00 0.17 0.24 92 1008.0
20260505161047 56 329 5.0 5.0 0.00 0.17 0.24 92 1008.1
20260505160947 56 326 5.0 5.0 0.00 0.17 0.24 92 1008.0
20260505160837 56 329 6.0 6.0 0.00 0.17 0.24 93 1008.0
20260505160737 56 322 4.0 6.0 0.00 0.17 0.24 93 1008.0
20260505160638 56 335 6.0 6.0 0.00 0.17 0.24 93 1008.0
20260505160538 56 355 4.0 4.0 0.00 0.17 0.24 93 1008.0
20260505160437 56 329 6.0 6.0 0.00 0.17 0.24 93 1008.0
20260505160337 56 327 6.0 7.0 0.00 0.17 0.24 93 1008.0
20260505160239 56 334 4.0 6.0 0.00 0.17 0.24 93 1008.1
20260505160127 56 351 4.0 5.0 0.00 0.17 0.24 93 1008.1
20260505153347 56 317 7.0 8.0 0.00 0.17 0.24 92 1008.2
20260505153248 56 329 7.0 8.0 0.00 0.17 0.24 92 1008.2
20260505153147 56 308 7.0 7.0 0.00 0.17 0.24 92 1008.2
20260505153047 56 333 7.0 10.0 0.00 0.17 0.24 92 1008.1
20260505152947 56 340 8.0 9.0 0.00 0.17 0.24 92 1008.2
20260505152848 57 342 5.0 5.0 0.00 0.17 0.24 92 1008.2
20260505152737 57 336 9.0 9.0 0.00 0.17 0.24 92 1008.2
20260505152637 57 346 6.0 7.0 0.00 0.17 0.24 92 1008.2
20260505152537 57 345 8.0 8.0 0.00 0.17 0.24 92 1008.2
20260505152437 57 340 9.0 10.0 0.00 0.17 0.24 92 1008.2
20260505152337 57 340 5.0 6.0 0.00 0.17 0.24 92 1008.2
20260505152238 57 336 9.0 9.0 0.00 0.17 0.24 92 1008.3
20260505152137 57 325 7.0 7.0 0.00 0.17 0.24 92 1008.3
20260505152027 57 332 6.0 6.0 0.00 0.17 0.24 92 1008.3
20260505151927 57 333 7.0 7.0 0.00 0.17 0.24 92 1008.3
20260505151828 57 335 6.0 6.0 0.00 0.17 0.24 92 1008.3
20260505151727 57 337 7.0 8.0 0.00 0.17 0.24 92 1008.3
20260505151627 57 334 6.0 6.0 0.00 0.17 0.24 92 1008.3
20260505151527 57 335 5.0 5.0 0.00 0.17 0.24 92 1008.3
20260505151431 57 329 6.0 6.0 0.00 0.17 0.24 92 1008.3
20260505151317 57 336 3.0 3.0 0.00 0.17 0.24 92 1008.3
20260505151217 57 347 6.0 6.0 0.00 0.17 0.24 92 1008.3
20260505151117 57 325 5.0 6.0 0.00 0.17 0.24 92 1008.3
20260505151018 57 326 8.0 8.0 0.00 0.17 0.24 92 1008.3
20260505150917 57 332 8.0 8.0 0.00 0.17 0.24 91 1008.3
20260505150817 57 334 6.0 6.0 0.00 0.17 0.24 91 1008.3
20260505150707 57 345 5.0 7.0 0.00 0.17 0.24 91 1008.3
20260505150608 57 331 7.0 7.0 0.00 0.17 0.24 92 1008.3
20260505150507 57 349 6.0 6.0 0.00 0.17 0.24 92 1008.3
20260505150407 57 313 7.0 8.0 0.00 0.17 0.24 92 1008.3
20260505150307 58 339 6.0 6.0 0.00 0.17 0.24 92 1008.4
20260505150158 58 312 7.0 7.0 0.00 0.17 0.24 92 1008.4
20260505140647 58 316 6.0 6.0 0.09 0.17 0.24 93 1008.6
20260505140537 58 334 2.0 2.0 0.09 0.17 0.24 93 1008.6
20260505140437 58 355 4.0 4.0 0.09 0.17 0.24 93 1008.6
20260505140337 58 335 7.0 7.0 0.09 0.17 0.24 93 1008.6
20260505140238 58 343 8.0 8.0 0.09 0.17 0.24 93 1008.7
20260505140137 58 338 1.0 2.0 0.09 0.17 0.24 93 1008.7
20260505130227 61 321 6.0 7.0 0.00 0.07 0.02 84 1008.9
20260505130127 61 331 4.0 4.0 0.00 0.07 0.02 84 1008.9
20260505125027 61 317 3.0 3.0 0.00 0.07 0.02 83 1009.0
20260505124927 61 316 4.0 5.0 0.00 0.07 0.02 82 1009.0
20260505124827 62 337 6.0 7.0 0.00 0.07 0.02 82 1009.0
20260505124727 62 338 5.0 6.0 0.00 0.07 0.02 83 1009.1
20260505124627 62 333 6.0 6.0 0.00 0.07 0.02 83 1009.1
20260505124528 62 324 5.0 5.0 0.00 0.07 0.02 83 1009.0
20260505124427 62 338 5.0 5.0 0.00 0.07 0.02 83 1009.1
20260505124327 62 0.0 2.0 0.00 0.07 0.02 83 1009.1
20260505124227 62 317 4.0 4.0 0.00 0.07 0.02 82 1009.1
20260505124128 62 334 2.0 3.0 0.00 0.07 0.02 82 1009.1
20260505124027 62 355 1.0 2.0 0.00 0.07 0.02 82 1009.1
20260505123927 62 316 6.0 7.0 0.00 0.07 0.02 83 1009.1
20260505123827 62 344 4.0 4.0 0.00 0.07 0.02 83 1009.1